Location: Góry Miechowskie
(50.3599°N, 20.1803°E)
Time: 12:07:57
(UTC+00:00)

CZ-2C R/B - Pass Details

Date: 15 June 2024
Orbit: 784 x 868 km, 98.3° (Epoch: 16 July)

Event Time Altitude Azimuth Distance (km) Brightness Sun altitude
Exits shadow 00:09:48 - 152° (SSE) 2,723 5.0 -13.7°
Reaches altitude 10° 00:10:41 10° 150° (SSE) 2,380 4.7 -13.6°
Maximum altitude 00:15:53 64° 70° (ENE) 907 3.0 -13.3°
Drops below altitude 10° 00:21:14 10° 351° (N) 2,451 6.0 -13.0°
Sets 00:23:38 0° 348° (NNW) 3,402 6.8 -12.8°
